WD6AWP Weather Reports


time (UTC)temp
C
wind
direction
speed
KPH
gust
KPH
rain 1hr
cm
rain 24hr
cm
rain mn
cm
humidity
%
barometer
mb
20260901021533 22 269 12.9 25.7 0.00 0.00 0.00 84 1012.0
20260901020031 22 277 16.1 27.4 0.00 0.00 0.00 82 1012.0
20260901014531 22 283 17.7 29.0 0.00 0.00 0.00 81 1011.9
20260901013031 23 284 9.7 27.4 0.00 0.00 0.00 82 1012.0
20260901011529 23 262 12.9 25.7 0.00 0.00 0.00 81 1012.1
20260901010037 24 265 12.9 22.5 0.00 0.00 0.00 79 1012.1
20260901004526 24 279 16.1 25.7 0.00 0.00 0.00 79 1012.2
20260901003025 24 272 17.7 30.6 0.00 0.00 0.00 79 1012.3
20260901001626 25 281 14.5 29.0 0.00 0.00 0.00 78 1012.3
20260901000032 25 219 16.1 25.7 0.00 0.00 0.00 78 1012.5
20260831234520 25 273 14.5 29.0 0.00 0.00 0.00 77 1012.4
20260831233019 26 207 11.3 20.9 0.00 0.00 0.00 74 1012.4
20260831231519 26 269 12.9 20.9 0.00 0.00 0.00 73 1012.5
20260831230018 26 219 9.7 22.5 0.00 0.00 0.00 74 1012.6
20260831224518 26 227 12.9 20.9 0.00 0.00 0.00 74 1012.7
20260831223023 26 221 9.7 24.1 0.00 0.00 0.00 75 1012.8
20260831221520 26 259 8.0 19.3 0.00 0.00 0.00 75 1013.0
20260831220016 26 243 6.4 19.3 0.00 0.00 0.00 75 1013.0
20260831214515 26 234 9.7 19.3 0.00 0.00 0.00 74 1013.1
20260831213015 26 264 12.9 22.5 0.00 0.00 0.00 75 1013.3
20260831211515 26 261 11.3 22.5 0.00 0.00 0.00 75 1013.5
20260831210028 26 313 11.3 22.5 0.00 0.00 0.00 75 1013.6
20260831204513 26 194 11.3 22.5 0.00 0.00 0.00 75 1013.6
20260831203012 26 235 9.7 17.7 0.00 0.00 0.00 75 1013.6
20260831201511 26 223 9.7 19.3 0.00 0.00 0.00 75 1013.6
20260831200009 26 238 9.7 22.5 0.00 0.00 0.00 75 1013.7
20260831194508 26 260 8.0 20.9 0.00 0.00 0.00 75 1013.6
20260831193019 26 262 8.0 19.3 0.00 0.00 0.00 76 1013.6
20260831191506 26 269 6.4 14.5 0.00 0.00 0.00 76 1013.7
20260831190005 27 270 8.0 20.9 0.00 0.00 0.00 75 1013.9
20260831184504 27 238 11.3 16.1 0.00 0.00 0.00 74 1013.9
20260831183006 27 230 6.4 14.5 0.00 0.00 0.00 74 1013.9
20260831181502 27 262 4.8 12.9 0.00 0.00 0.00 75 1013.9
20260831180104 26 229 4.8 11.3 0.00 0.00 0.00 75 1013.9
20260831174556 26 264 1.6 12.9 0.00 0.00 0.00 77 1013.8
20260831173100 26 263 6.4 16.1 0.00 0.00 0.00 77 1013.9
20260831171556 26 217 4.8 16.1 0.00 0.00 0.00 78 1013.8
20260831170052 26 225 1.6 12.9 0.00 0.00 0.00 77 1013.6
20260831164605 25 228 1.6 12.9 0.00 0.00 0.00 79 1013.5
20260831163045 25 161 1.6 11.3 0.00 0.00 0.00 81 1013.4
20260831161557 24 275 0.0 4.8 0.00 0.00 0.00 83 1013.4
20260831160042 23 275 0.0 6.4 0.00 0.00 0.00 84 1013.4
20260831154533 23 281 0.0 6.4 0.00 0.00 0.00 86 1013.3
20260831153029 22 281 0.0 4.8 0.00 0.00 0.00 88 1013.3
20260831151527 22 281 0.0 0.0 0.00 0.00 0.00 90 1013.2
20260831150023 21 281 0.0 0.0 0.00 0.00 0.00 91 1013.2
20260831144521 21 281 0.0 0.0 0.00 0.00 0.00 93 1013.1
20260831143020 21 281 0.0 0.0 0.00 0.00 0.00 94 1012.9
20260831141518 20 281 0.0 0.0 0.00 0.00 0.00 93 1012.7
20260831140015 20 281 0.0 0.0 0.00 0.00 0.00 93 1012.5
20260831134517 20 281 0.0 0.0 0.00 0.00 0.00 94 1012.3
20260831133013 20 281 0.0 0.0 0.00 0.00 0.00 93 1012.1
20260831131513 20 281 0.0 0.0 0.00 0.00 0.00 93 1012.0
20260831130011 20 281 0.0 0.0 0.00 0.00 0.00 92 1012.0
20260831124509 20 281 0.0 0.0 0.00 0.00 0.00 92 1011.9
20260831123009 20 281 0.0 0.0 0.00 0.00 0.00 92 1011.9
20260831121507 20 281 0.0 0.0 0.00 0.00 0.00 92 1011.8
20260831120010 20 281 0.0 0.0 0.00 0.00 0.00 92 1011.8
20260831114504 20 281 0.0 0.0 0.00 0.00 0.00 91 1011.9
20260831113003 21 281 0.0 0.0 0.00 0.00 0.00 91 1011.9
20260831111503 21 281 0.0 0.0 0.00 0.00 0.00 91 1012.0
20260831110003 21 281 0.0 0.0 0.00 0.00 0.00 91 1012.0
20260831104509 21 281 0.0 0.0 0.00 0.00 0.00 91 1012.0
20260831103006 21 281 0.0 6.4 0.00 0.00 0.00 92 1012.0
20260831101502 21 281 1.6 8.0 0.00 0.00 0.00 92 1012.1
20260831100119 21 281 0.0 4.8 0.00 0.00 0.00 93 1012.0
20260831094600 20 281 0.0 0.0 0.00 0.00 0.00 91 1012.0
20260831093112 21 281 0.0 0.0 0.00 0.00 0.00 91 1012.1
20260831091558 21 281 0.0 0.0 0.00 0.00 0.00 91 1011.9
20260831090116 21 281 0.0 0.0 0.00 0.00 0.00 91 1011.9
20260831084556 21 281 0.0 0.0 0.00 0.00 0.00 91 1011.9
20260831083107 21 281 0.0 0.0 0.00 0.00 0.00 90 1012.0
20260831081600 21 281 0.0 0.0 0.00 0.00 0.00 90 1012.0
20260831080124 21 281 0.0 0.0 0.00 0.00 0.00 90 1012.1
20260831074551 21 281 0.0 0.0 0.00 0.00 0.00 89 1012.2
20260831073050 21 281 0.0 0.0 0.00 0.00 0.00 89 1012.1
20260831071548 21 281 0.0 0.0 0.00 0.00 0.00 90 1012.0
20260831070046 22 281 0.0 0.0 0.00 0.00 0.00 89 1011.9
20260831064545 22 281 0.0 0.0 0.00 0.00 0.00 89 1011.9
20260831063100 22 281 0.0 0.0 0.00 0.00 0.00 89 1011.7
20260831061544 22 281 0.0 6.4 0.00 0.00 0.00 89 1011.7
20260831060045 22 284 0.0 0.0 0.00 0.00 0.00 88 1011.6
20260831054544 22 284 3.2 8.0 0.00 0.00 0.00 88 1011.7
20260831053121 22 283 1.6 11.3 0.00 0.00 0.00 87 1011.8
20260831051542 22 290 1.6 8.0 0.00 0.00 0.00 85 1011.7
20260831050041 22 285 0.0 8.0 0.00 0.00 0.00 85 1011.8
20260831044635 22 280 0.0 0.0 0.00 0.00 0.00 83 1011.7
20260831043041 22 280 0.0 0.0 0.00 0.00 0.00 83 1011.7
20260831041540 23 280 0.0 0.0 0.00 0.00 0.00 83 1011.5
20260831040039 23 280 0.0 6.4 0.00 0.00 0.00 83 1011.2
20260831034539 23 280 3.2 11.3 0.00 0.00 0.00 83 1011.0
20260831033053 23 268 1.6 11.3 0.00 0.00 0.00 82 1010.8
20260831031542 23 277 8.0 17.7 0.00 0.00 0.00 84 1010.6
20260831030038 23 271 9.7 19.3 0.00 0.00 0.00 84 1010.3
20260831024537 23 277 14.5 22.5 0.00 0.00 0.00 85 1010.3
20260831023036 23 257 11.3 27.4 0.00 0.00 0.00 86 1010.2